User: anonymous   Login
Location: Unspecified
(0.0000°N, 0.0000°E)
Time: 13:03:40
(UTC+00:00)
Language:

JUGNU - Orbit

View from above orbital plane
View from above orbital plane
View from above satellite
View from above satellite

Ground track
Ground track

The orbit data is extracted from the following two-line orbital elements,

1 37839U 11058B   19166.92066208  .00000295  00000-0  15431-4 0  9995
2 37839  19.9628 351.5820 0018898 296.3592 181.5140 14.12652329396868
Epoch (UTC): 15 June 2019 22:05:45
Eccentricity: 0.0018898
inclination: 19.9628°
perigee height: 836 km
apogee height: 864 km
right ascension of ascending node: 351.5820°
argument of perigee: 296.3592°
revolutions per day: 14.12652329
mean anomaly at epoch: 181.5140°
orbit number at epoch: 39686

The dashed part of the orbit path shows where the satellite is in the earth's shadow,  

DLR